QPF
0.18 0.15 0.07 0.02 0.00 0.00 0.00 0.00 0.00 0.00 0.00 0.00 0.00 0.00 0.00 0.00 0.00 0.00 0.00 0.00 0.00 0.00 0.00 0.00 0.00 0.00 0.00 0.00 0.00 0.00 0.00 0.00 0.00 0.00 0.00 0.00 0.00 0.00 0.00 0.00 0.00 0.00 0.00 0.00
0.18 0.12 0.04 0.01 0.00 0.00 0.00 0.00 0.00 0.00 0.00 0.00 0.00 0.00 0.00 0.00 0.00 0.00 0.00 0.00 0.00 0.00 0.00 0.00 0.00 0.00 0.00 0.00 0.00 0.00 0.00 0.00 0.00 0.00 0.00 0.00 0.00 0.00 0.00 0.00 0.00 0.00 0.00 0.00
0.11 0.06 0.02 0.01 0.01 0.00 0.00 0.00 0.00 0.00 0.00 0.00 0.00 0.00 0.00 0.00 0.00 0.00 0.00 0.00 0.00 0.00 0.00 0.00 0.00 0.00 0.00 0.00 0.00 0.00 0.00 0.00 0.00 0.00 0.00 0.00 0.00 0.00 0.00 0.00 0.00 0.00 0.00 0.00
0.09 0.04 0.02 0.02 0.01 0.00 0.00 0.00 0.00 0.00 0.00 0.00 0.00 0.00 0.00 0.00 0.00 0.00 0.00 0.00 0.00 0.00 0.00 0.00 0.00 0.00 0.00 0.00 0.00 0.00 0.00 0.00 0.00 0.00 0.00 0.00 0.00 0.00 0.00 0.00 0.00 0.00 0.00 0.00
0.08 0.04 0.02 0.02 0.01 0.00 0.00 0.00 0.00 0.00 0.00 0.00 0.00 0.00 0.00 0.00 0.00 0.00 0.00 0.00 0.00 0.00 0.00 0.00 0.00 0.00 0.00 0.00 0.00 0.00 0.00 0.00 0.00 0.00 0.00 0.00 0.00 0.00 0.00 0.00 0.00 0.00 0.00 0.00
0.04 0.02 0.02 0.01 0.00 0.00 0.00 0.00 0.00 0.00 0.00 0.00 0.00 0.00 0.00 0.00 0.00 0.00 0.00 0.00 0.00 0.00 0.00 0.00 0.00 0.00 0.00 0.00 0.00 0.00 0.00 0.00 0.00 0.00 0.00 0.00 0.00 0.00 0.00 0.00 0.00 0.00 0.00 0.00
0.05 0.02 0.02 0.01 0.01 0.01 0.01 0.00 0.00 0.00 0.00 0.00 0.00 0.00 0.00 0.00 0.00 0.00 0.00 0.00 0.00 0.00 0.00 0.00 0.00 0.00 0.00 0.00 0.00 0.00 0.00 0.00 0.00 0.00 0.00 0.00 0.00 0.00 0.00 0.00 0.00 0.00 0.00 0.00
0.04 0.03 0.01 0.01 0.01 0.01 0.01 0.00 0.00 0.00 0.00 0.00 0.00 0.00 0.00 0.00 0.00 0.00 0.00 0.00 0.00 0.00 0.00 0.00 0.00 0.00 0.00 0.00 0.00 0.00 0.00 0.00 0.00 0.00 0.00 0.00 0.00 0.00 0.00 0.00 0.00 0.00 0.00 0.00
0.01 0.02 0.01 0.00 0.00 0.00 0.01 0.00 0.00 0.00 0.00 0.00 0.00 0.00 0.00 0.00 0.00 0.00 0.00 0.00 0.00 0.00 0.00 0.00 0.00 0.00 0.00 0.00 0.00 0.00 0.00 0.00 0.00 0.00 0.00 0.00 0.00 0.00 0.00 0.00 0.00 0.00 0.00 0.00
0.00 0.00 0.00 0.00 0.00 0.00 0.00 0.00 0.00 0.00 0.00 0.00 0.00 0.00 0.00 0.00 0.00 0.00 0.00 0.00 0.00 0.00 0.00 0.00 0.00 0.00 0.00 0.00 0.00 0.00 0.00 0.00 0.00 0.00 0.00 0.00 0.00 0.00 0.00 0.00 0.00 0.00 0.00 0.00
0.00 0.00 0.00 0.00 0.00 0.00 0.00 0.00 0.00 0.00 0.00 0.00 0.00 0.00 0.00 0.00 0.00 0.00 0.00 0.00 0.00 0.00 0.00 0.00 0.00 0.00 0.00 0.00 0.00 0.00 0.00 0.00 0.00 0.00 0.00 0.00 0.00 0.00 0.00 0.00 0.00 0.00 0.00 0.00
0.00 0.00 0.00 0.00 0.00 0.00 0.00 0.00 0.00 0.00 0.00 0.00 0.00 0.00 0.00 0.00 0.00 0.00 0.00 0.00 0.00 0.00 0.00 0.00 0.00 0.00 0.00 0.00 0.00 0.00 0.00 0.00 0.00 0.00 0.00 0.00 0.00 0.00 0.00 0.00 0.00 0.00 0.00 0.00
0.00 0.00 0.00 0.00 0.00 0.00 0.00 0.00 0.00 0.00 0.00 0.00 0.00 0.00 0.00 0.00 0.00 0.00 0.00 0.00 0.00 0.00 0.00 0.00 0.00 0.00 0.00 0.00 0.00 0.00 0.00 0.00 0.00 0.00 0.00 0.00 0.00 0.00 0.00 0.00 0.00 0.00 0.00 0.00
0.00 0.00 0.00 0.00 0.00 0.00 0.00 0.00 0.00 0.00 0.00 0.00 0.00 0.00 0.00 0.00 0.00 0.00 0.00 0.00 0.00 0.00 0.00 0.00 0.00 0.00 0.00 0.00 0.00 0.00 0.00 0.00 0.00 0.00 0.00 0.00 0.00 0.00 0.00 0.00 0.00 0.00 0.00 0.00
0.00 0.00 0.00 0.00 0.00 0.00 0.00 0.00 0.00 0.00 0.00 0.00 0.00 0.00 0.00 0.00 0.00 0.00 0.00 0.00 0.00 0.00 0.00 0.00 0.00 0.00 0.00 0.00 0.00 0.00 0.00 0.00 0.00 0.00 0.00 0.00 0.00 0.00 0.00 0.00 0.00 0.00 0.00 0.00
0.00 0.00 0.00 0.00 0.00 0.00 0.00 0.00 0.00 0.00 0.00 0.00 0.00 0.00 0.00 0.00 0.00 0.00 0.00 0.00 0.00 0.00 0.00 0.00 0.00 0.00 0.00 0.00 0.00 0.00 0.00 0.00 0.00 0.00 0.00 0.00 0.00 0.00 0.00 0.00 0.00 0.00 0.00 0.00
0.00 0.00 0.00 0.00 0.00 0.00 0.00 0.00 0.00 0.00 0.00 0.00 0.00 0.00 0.00 0.00 0.00 0.00 0.00 0.00 0.00 0.00 0.00 0.00 0.00 0.00 0.00 0.00 0.00 0.00 0.00 0.00 0.00 0.00 0.00 0.00 0.00 0.00 0.00 0.00 0.00 0.00 0.00 0.00
0.00 0.00 0.00 0.00 0.00 0.00 0.00 0.00 0.00 0.00 0.00 0.00 0.00 0.00 0.00 0.00 0.00 0.00 0.00 0.00 0.00 0.00 0.00 0.00 0.00 0.00 0.00 0.00 0.00 0.00 0.00 0.00 0.00 0.00 0.00 0.00 0.00 0.00 0.00 0.00 0.00 0.00 0.00 0.00
0.00 0.00 0.00 0.00 0.00 0.00 0.00 0.00 0.00 0.00 0.00 0.00 0.00 0.00 0.00 0.00 0.00 0.00 0.00 0.00 0.00 0.00 0.00 0.00 0.00 0.00 0.00 0.00 0.00 0.00 0.00 0.00 0.00 0.00 0.00 0.00 0.00 0.00 0.00 0.00 0.00 0.00 0.00 0.00
0.00 0.00 0.00 0.00 0.00 0.00 0.00 0.00 0.00 0.00 0.00 0.00 0.00 0.00 0.00 0.00 0.00 0.00 0.00 0.00 0.00 0.00 0.00 0.00 0.00 0.00 0.00 0.00 0.00 0.00 0.00 0.00 0.00 0.00 0.00 0.00 0.00 0.00 0.00 0.00 0.00 0.00 0.00 0.00
0.00 0.00 0.00 0.00 0.00 0.00 0.00 0.00 0.00 0.00 0.00 0.00 0.00 0.00 0.00 0.00 0.00 0.00 0.00 0.00 0.00 0.00 0.00 0.00 0.00 0.00 0.00 0.00 0.00 0.00 0.00 0.00 0.00 0.00 0.00 0.00 0.00 0.00 0.00 0.00 0.00 0.00 0.00 0.00
0.00 0.00 0.00 0.00 0.00 0.00 0.00 0.00 0.00 0.00 0.00 0.00 0.00 0.00 0.00 0.00 0.00 0.00 0.00 0.00 0.00 0.00 0.00 0.00 0.00 0.00 0.00 0.00 0.00 0.00 0.00 0.00 0.00 0.00 0.00 0.00 0.00 0.00 0.00 0.00 0.00 0.00 0.00 0.00
0.00 0.00 0.00 0.00 0.00 0.00 0.00 0.00 0.00 0.00 0.00 0.00 0.00 0.00 0.00 0.00 0.00 0.00 0.00 0.00 0.00 0.00 0.00 0.00 0.00 0.00 0.00 0.00 0.00 0.00 0.00 0.00 0.00 0.00 0.00 0.00 0.00 0.00 0.00 0.00 0.00 0.00 0.00 0.00
0.00 0.00 0.00 0.00 0.00 0.00 0.00 0.00 0.00 0.00 0.00 0.00 0.00 0.00 0.00 0.00 0.00 0.00 0.00 0.00 0.00 0.00 0.00 0.00 0.00 0.00 0.00 0.00 0.00 0.00 0.00 0.00 0.00 0.00 0.00 0.00 0.00 0.00 0.00 0.00 0.00 0.00 0.00 0.00
0.00 0.00 0.00 0.00 0.00 0.00 0.00 0.00 0.00 0.00 0.00 0.00 0.00 0.00 0.00 0.00 0.00 0.00 0.00 0.00 0.00 0.00 0.00 0.00 0.00 0.00 0.00 0.00 0.00 0.00 0.00 0.00 0.00 0.00 0.00 0.00 0.00 0.00 0.00 0.00 0.00 0.00 0.00 0.00
0.00 0.00 0.00 0.00 0.00 0.00 0.00 0.00 0.00 0.00 0.00 0.00 0.00 0.00 0.00 0.00 0.00 0.00 0.00 0.00 0.00 0.00 0.00 0.00 0.00 0.00 0.00 0.00 0.00 0.00 0.00 0.00 0.00 0.00 0.00 0.00 0.00 0.00 0.00 0.00 0.00 0.00 0.00 0.00
MSLP
1012.35 1012.75 1013.21 1013.73 1014.28 1014.84 1015.34 1015.73 1015.94 1015.94 1015.69 1015.22 1014.57 1013.83 1013.08 1012.43 1011.95 1011.69 1011.65 1011.80 1012.06 1012.35 1012.58 1012.66 1012.55 1012.25 1011.79 1011.23 1010.66 1010.14 1009.77 1009.57 1009.56 1009.73 1010.04 1010.41 1010.81 1011.16 1011.42 1011.59 1011.65 1011.64 1011.56 1011.47
1012.07 1012.43 1012.87 1013.39 1013.98 1014.60 1015.19 1015.69 1016.01 1016.09 1015.91 1015.47 1014.81 1014.03 1013.24 1012.54 1012.04 1011.78 1011.78 1012.00 1012.37 1012.77 1013.11 1013.27 1013.23 1012.96 1012.50 1011.91 1011.30 1010.74 1010.33 1010.12 1010.11 1010.30 1010.62 1011.01 1011.40 1011.74 1011.98 1012.10 1012.11 1012.03 1011.91 1011.77
1011.80 1012.11 1012.52 1013.03 1013.64 1014.32 1015.00 1015.60 1016.02 1016.19 1016.08 1015.68 1015.03 1014.23 1013.40 1012.66 1012.12 1011.85 1011.87 1012.13 1012.56 1013.05 1013.48 1013.74 1013.77 1013.55 1013.13 1012.57 1011.97 1011.43 1011.04 1010.85 1010.87 1011.07 1011.41 1011.81 1012.19 1012.50 1012.69 1012.76 1012.71 1012.59 1012.42 1012.24
1011.58 1011.84 1012.21 1012.72 1013.35 1014.07 1014.82 1015.50 1016.02 1016.27 1016.22 1015.85 1015.22 1014.40 1013.54 1012.75 1012.18 1011.88 1011.88 1012.16 1012.63 1013.17 1013.66 1014.00 1014.11 1013.98 1013.64 1013.15 1012.63 1012.15 1011.83 1011.69 1011.75 1011.98 1012.33 1012.71 1013.07 1013.34 1013.48 1013.49 1013.39 1013.21 1013.00 1012.78
1011.40 1011.63 1011.98 1012.48 1013.12 1013.88 1014.69 1015.44 1016.02 1016.34 1016.34 1016.00 1015.37 1014.55 1013.65 1012.82 1012.20 1011.85 1011.83 1012.09 1012.56 1013.12 1013.67 1014.07 1014.27 1014.24 1014.00 1013.63 1013.22 1012.85 1012.61 1012.55 1012.66 1012.92 1013.27 1013.63 1013.95 1014.17 1014.25 1014.21 1014.06 1013.84 1013.58 1013.33
1011.25 1011.47 1011.81 1012.31 1012.97 1013.77 1014.61 1015.41 1016.04 1016.40 1016.43 1016.11 1015.48 1014.64 1013.71 1012.84 1012.17 1011.78 1011.71 1011.94 1012.39 1012.97 1013.54 1014.01 1014.29 1014.37 1014.26 1014.02 1013.74 1013.49 1013.36 1013.37 1013.54 1013.82 1014.16 1014.49 1014.76 1014.92 1014.95 1014.85 1014.66 1014.40 1014.12 1013.84
1011.09 1011.32 1011.67 1012.19 1012.87 1013.69 1014.57 1015.39 1016.04 1016.42 1016.46 1016.14 1015.51 1014.65 1013.70 1012.80 1012.09 1011.66 1011.55 1011.75 1012.18 1012.76 1013.36 1013.88 1014.25 1014.44 1014.46 1014.36 1014.21 1014.09 1014.06 1014.14 1014.34 1014.63 1014.95 1015.24 1015.46 1015.56 1015.54 1015.40 1015.17 1014.89 1014.59 1014.29
1010.85 1011.11 1011.50 1012.05 1012.76 1013.61 1014.50 1015.33 1015.98 1016.36 1016.39 1016.06 1015.42 1014.56 1013.60 1012.69 1011.96 1011.51 1011.38 1011.56 1011.99 1012.57 1013.20 1013.78 1014.23 1014.52 1014.66 1014.69 1014.67 1014.65 1014.71 1014.84 1015.06 1015.34 1015.62 1015.87 1016.03 1016.08 1016.02 1015.85 1015.60 1015.30 1014.99 1014.68
1010.50 1010.81 1011.24 1011.83 1012.58 1013.44 1014.34 1015.16 1015.80 1016.16 1016.17 1015.84 1015.20 1014.34 1013.39 1012.50 1011.78 1011.35 1011.22 1011.41 1011.85 1012.45 1013.12 1013.75 1014.28 1014.66 1014.91 1015.05 1015.12 1015.20 1015.30 1015.47 1015.69 1015.94 1016.19 1016.38 1016.49 1016.50 1016.40 1016.21 1015.95 1015.66 1015.35 1015.03
1010.02 1010.38 1010.86 1011.49 1012.27 1013.15 1014.05 1014.86 1015.47 1015.80 1015.79 1015.45 1014.82 1013.99 1013.07 1012.23 1011.57 1011.17 1011.09 1011.31 1011.78 1012.42 1013.13 1013.82 1014.42 1014.88 1015.21 1015.44 1015.59 1015.72 1015.86 1016.04 1016.24 1016.46 1016.65 1016.80 1016.86 1016.83 1016.71 1016.51 1016.25 1015.96 1015.65 1015.32
1009.41 1009.82 1010.35 1011.02 1011.83 1012.71 1013.60 1014.38 1014.96 1015.26 1015.24 1014.90 1014.30 1013.51 1012.67 1011.90 1011.32 1011.01 1011.00 1011.28 1011.80 1012.49 1013.25 1013.99 1014.64 1015.17 1015.57 1015.85 1016.06 1016.22 1016.37 1016.54 1016.72 1016.89 1017.04 1017.14 1017.17 1017.11 1016.97 1016.76 1016.50 1016.21 1015.90 1015.56
1008.75 1009.19 1009.76 1010.46 1011.28 1012.15 1013.01 1013.76 1014.31 1014.58 1014.55 1014.23 1013.67 1012.96 1012.22 1011.55 1011.08 1010.87 1010.95 1011.31 1011.90 1012.64 1013.44 1014.23 1014.92 1015.50 1015.94 1016.26 1016.50 1016.68 1016.83 1016.98 1017.13 1017.27 1017.37 1017.43 1017.43 1017.34 1017.19 1016.97 1016.71 1016.41 1016.09 1015.73
1008.11 1008.58 1009.16 1009.87 1010.68 1011.53 1012.35 1013.05 1013.56 1013.81 1013.79 1013.50 1013.00 1012.39 1011.76 1011.22 1010.88 1010.78 1010.96 1011.40 1012.05 1012.83 1013.67 1014.49 1015.22 1015.82 1016.29 1016.64 1016.90 1017.08 1017.23 1017.37 1017.49 1017.59 1017.66 1017.69 1017.65 1017.54 1017.37 1017.14 1016.86 1016.54 1016.19 1015.81
1007.59 1008.06 1008.65 1009.34 1010.11 1010.91 1011.67 1012.31 1012.77 1013.01 1012.99 1012.76 1012.35 1011.84 1011.35 1010.95 1010.74 1010.76 1011.04 1011.54 1012.24 1013.06 1013.92 1014.75 1015.49 1016.11 1016.60 1016.96 1017.23 1017.42 1017.57 1017.69 1017.79 1017.87 1017.91 1017.91 1017.84 1017.71 1017.51 1017.26 1016.95 1016.60 1016.22 1015.80
1007.26 1007.73 1008.29 1008.93 1009.63 1010.35 1011.03 1011.60 1012.01 1012.22 1012.23 1012.06 1011.75 1011.37 1011.02 1010.77 1010.69 1010.82 1011.18 1011.75 1012.48 1013.31 1014.17 1014.99 1015.73 1016.35 1016.85 1017.23 1017.50 1017.71 1017.85 1017.97 1018.06 1018.11 1018.13 1018.10 1018.01 1017.85 1017.62 1017.33 1016.99 1016.60 1016.17 1015.71
1007.19 1007.62 1008.12 1008.68 1009.29 1009.90 1010.47 1010.95 1011.30 1011.50 1011.54 1011.43 1011.24 1011.00 1010.79 1010.69 1010.74 1010.98 1011.41 1012.01 1012.75 1013.57 1014.42 1015.22 1015.95 1016.56 1017.06 1017.44 1017.73 1017.94 1018.10 1018.21 1018.29 1018.33 1018.33 1018.27 1018.15 1017.96 1017.70 1017.37 1016.98 1016.55 1016.08 1015.57
1007.35 1007.73 1008.15 1008.60 1009.08 1009.56 1010.00 1010.39 1010.68 1010.86 1010.93 1010.91 1010.83 1010.73 1010.68 1010.72 1010.89 1011.22 1011.71 1012.33 1013.07 1013.87 1014.68 1015.45 1016.15 1016.75 1017.25 1017.64 1017.94 1018.16 1018.32 1018.43 1018.50 1018.52 1018.49 1018.41 1018.26 1018.03 1017.74 1017.37 1016.95 1016.47 1015.96 1015.41
1007.69 1008.01 1008.32 1008.65 1008.98 1009.31 1009.63 1009.91 1010.13 1010.30 1010.42 1010.48 1010.53 1010.58 1010.67 1010.85 1011.13 1011.54 1012.07 1012.71 1013.43 1014.20 1014.97 1015.70 1016.37 1016.96 1017.44 1017.84 1018.14 1018.37 1018.53 1018.63 1018.68 1018.69 1018.63 1018.51 1018.33 1018.08 1017.75 1017.35 1016.90 1016.39 1015.85 1015.27
1008.13 1008.37 1008.58 1008.77 1008.95 1009.13 1009.32 1009.50 1009.68 1009.84 1010.00 1010.16 1010.33 1010.52 1010.76 1011.06 1011.45 1011.92 1012.49 1013.13 1013.83 1014.55 1015.28 1015.98 1016.61 1017.18 1017.66 1018.05 1018.35 1018.58 1018.73 1018.82 1018.85 1018.81 1018.73 1018.57 1018.36 1018.07 1017.72 1017.30 1016.83 1016.31 1015.74 1015.14
1008.56 1008.72 1008.82 1008.89 1008.94 1008.99 1009.06 1009.17 1009.30 1009.48 1009.70 1009.94 1010.23 1010.55 1010.92 1011.33 1011.81 1012.34 1012.93 1013.57 1014.24 1014.93 1015.61 1016.27 1016.88 1017.42 1017.89 1018.27 1018.57 1018.78 1018.92 1018.98 1018.97 1018.90 1018.76 1018.57 1018.32 1018.01 1017.64 1017.21 1016.73 1016.20 1015.63 1015.02
1008.89 1008.98 1009.00 1008.97 1008.91 1008.87 1008.87 1008.92 1009.05 1009.25 1009.52 1009.85 1010.24 1010.68 1011.15 1011.66 1012.20 1012.78 1013.38 1014.01 1014.65 1015.31 1015.95 1016.57 1017.15 1017.67 1018.12 1018.49 1018.77 1018.96 1019.07 1019.09 1019.03 1018.91 1018.73 1018.49 1018.20 1017.86 1017.48 1017.05 1016.57 1016.05 1015.48 1014.87
1009.06 1009.11 1009.08 1008.99 1008.88 1008.79 1008.75 1008.79 1008.93 1009.17 1009.50 1009.91 1010.39 1010.91 1011.46 1012.04 1012.62 1013.22 1013.82 1014.43 1015.05 1015.67 1016.28 1016.86 1017.42 1017.91 1018.34 1018.69 1018.95 1019.11 1019.17 1019.14 1019.03 1018.85 1018.61 1018.33 1018.00 1017.64 1017.24 1016.81 1016.33 1015.82 1015.25 1014.64
1009.06 1009.11 1009.07 1008.97 1008.86 1008.78 1008.75 1008.82 1008.99 1009.28 1009.66 1010.14 1010.67 1011.25 1011.86 1012.46 1013.06 1013.66 1014.25 1014.83 1015.42 1016.00 1016.57 1017.13 1017.65 1018.12 1018.52 1018.84 1019.07 1019.19 1019.20 1019.12 1018.95 1018.71 1018.42 1018.08 1017.71 1017.32 1016.91 1016.47 1016.00 1015.49 1014.93 1014.31
1008.92 1009.00 1009.00 1008.95 1008.89 1008.86 1008.90 1009.02 1009.25 1009.59 1010.03 1010.54 1011.11 1011.71 1012.33 1012.93 1013.52 1014.10 1014.66 1015.20 1015.75 1016.29 1016.83 1017.35 1017.84 1018.28 1018.65 1018.94 1019.12 1019.20 1019.16 1019.02 1018.80 1018.50 1018.15 1017.76 1017.36 1016.93 1016.50 1016.05 1015.57 1015.06 1014.49 1013.87
1008.71 1008.84 1008.92 1008.97 1009.01 1009.08 1009.21 1009.42 1009.71 1010.10 1010.57 1011.11 1011.68 1012.27 1012.87 1013.44 1014.00 1014.53 1015.04 1015.55 1016.05 1016.55 1017.05 1017.53 1017.98 1018.38 1018.71 1018.96 1019.10 1019.13 1019.04 1018.85 1018.58 1018.23 1017.83 1017.40 1016.96 1016.50 1016.04 1015.57 1015.08 1014.55 1013.98 1013.34
1008.50 1008.72 1008.91 1009.08 1009.25 1009.44 1009.68 1009.97 1010.34 1010.77 1011.26 1011.78 1012.34 1012.89 1013.44 1013.97 1014.47 1014.95 1015.42 1015.87 1016.33 1016.78 1017.23 1017.67 1018.08 1018.43 1018.72 1018.91 1019.01 1018.99 1018.86 1018.62 1018.30 1017.91 1017.48 1017.02 1016.54 1016.06 1015.58 1015.08 1014.56 1014.01 1013.42 1012.77
Thickness
5594 5597 5602 5611 5622 5627 5625 5627 5630 5638 5648 5651 5653 5663 5681 5690 5693 5693 5691 5691 5692 5694 5695 5697 5698 5700 5703 5706 5708 5710 5714 5716 5716 5712 5707 5701 5695 5691 5687 5684 5681 5678 5675 5673
5587 5597 5611 5617 5619 5622 5621 5623 5628 5635 5645 5649 5650 5661 5677 5686 5691 5692 5689 5686 5686 5686 5687 5688 5689 5690 5691 5693 5696 5701 5704 5705 5705 5703 5698 5693 5687 5680 5675 5671 5669 5666 5664 5661
5592 5604 5612 5612 5610 5612 5617 5621 5625 5628 5635 5647 5649 5659 5673 5686 5688 5687 5685 5682 5679 5679 5678 5679 5679 5679 5681 5682 5685 5691 5692 5693 5692 5690 5687 5681 5674 5668 5663 5658 5655 5652 5650 5648
5587 5603 5608 5607 5609 5612 5614 5625 5626 5626 5623 5624 5637 5634 5661 5674 5680 5680 5677 5673 5671 5672 5672 5671 5672 5672 5672 5672 5675 5678 5679 5678 5676 5675 5671 5666 5658 5651 5644 5642 5641 5640 5638 5635
5584 5597 5604 5606 5613 5618 5620 5626 5624 5624 5621 5619 5628 5630 5655 5668 5671 5674 5671 5667 5665 5665 5666 5665 5665 5665 5664 5664 5664 5665 5665 5663 5660 5659 5656 5650 5644 5638 5634 5632 5630 5628 5626 5623
5584 5597 5605 5611 5616 5619 5620 5617 5614 5610 5611 5612 5626 5625 5645 5659 5670 5674 5669 5663 5660 5659 5659 5659 5658 5658 5656 5654 5654 5653 5653 5649 5646 5644 5641 5636 5631 5626 5624 5620 5617 5615 5612 5609
5575 5587 5600 5610 5605 5606 5610 5604 5596 5599 5599 5609 5627 5625 5647 5670 5675 5675 5672 5662 5655 5653 5652 5652 5651 5649 5647 5644 5643 5642 5641 5637 5634 5631 5627 5623 5618 5614 5610 5606 5603 5600 5598 5594
5573 5579 5594 5605 5610 5606 5606 5607 5596 5594 5597 5607 5621 5621 5652 5670 5670 5673 5671 5661 5651 5646 5645 5646 5644 5641 5638 5635 5633 5632 5630 5625 5622 5619 5614 5610 5606 5602 5597 5592 5589 5585 5581 5578
5581 5585 5598 5607 5616 5613 5602 5603 5609 5600 5602 5602 5615 5631 5652 5669 5664 5664 5660 5653 5646 5642 5641 5641 5638 5634 5629 5626 5624 5622 5619 5615 5611 5607 5602 5596 5592 5587 5582 5578 5573 5569 5565 5561
5590 5584 5595 5605 5610 5612 5614 5609 5595 5597 5597 5601 5615 5626 5641 5660 5660 5654 5650 5647 5642 5638 5636 5635 5631 5625 5621 5617 5614 5611 5608 5604 5598 5593 5589 5583 5577 5572 5567 5563 5558 5553 5548 5543
5593 5586 5588 5597 5603 5604 5603 5604 5605 5600 5598 5597 5603 5623 5646 5649 5651 5648 5645 5642 5638 5635 5633 5628 5622 5617 5611 5607 5603 5600 5597 5592 5586 5580 5574 5568 5563 5558 5553 5547 5542 5536 5530 5525
5591 5587 5583 5594 5608 5613 5614 5609 5604 5598 5594 5593 5596 5617 5646 5641 5645 5645 5641 5638 5634 5632 5627 5621 5614 5607 5601 5596 5592 5588 5584 5579 5572 5567 5561 5555 5549 5543 5537 5531 5525 5520 5513 5507
5594 5590 5581 5583 5593 5603 5610 5608 5610 5606 5596 5585 5592 5617 5639 5637 5641 5641 5638 5635 5630 5626 5619 5611 5603 5597 5591 5585 5580 5576 5571 5566 5560 5553 5547 5540 5534 5527 5521 5515 5509 5503 5497 5490
5603 5596 5595 5593 5600 5603 5605 5607 5607 5605 5596 5591 5599 5617 5631 5635 5636 5636 5635 5631 5623 5617 5610 5601 5592 5585 5579 5574 5569 5564 5558 5552 5546 5539 5532 5525 5517 5511 5504 5498 5492 5486 5478 5471
5603 5598 5601 5604 5608 5610 5613 5610 5606 5609 5608 5603 5610 5612 5624 5630 5632 5633 5630 5623 5614 5607 5600 5592 5583 5574 5569 5563 5557 5551 5545 5538 5532 5524 5516 5508 5501 5494 5488 5481 5474 5467 5459 5451
5602 5599 5601 5599 5605 5611 5611 5610 5608 5610 5610 5609 5615 5616 5624 5625 5625 5622 5618 5614 5608 5600 5591 5582 5574 5566 5559 5552 5545 5538 5531 5524 5516 5508 5500 5493 5486 5478 5471 5463 5456 5448 5440 5431
5598 5601 5596 5591 5600 5608 5605 5611 5608 5610 5613 5612 5610 5618 5621 5619 5617 5612 5608 5606 5601 5591 5582 5574 5566 5558 5549 5541 5533 5525 5517 5508 5500 5492 5484 5477 5469 5461 5453 5445 5437 5429 5420 5410
5597 5595 5588 5584 5594 5589 5610 5615 5614 5610 5608 5613 5617 5616 5615 5609 5599 5595 5595 5595 5589 5580 5572 5564 5555 5545 5536 5527 5519 5510 5501 5493 5484 5476 5467 5460 5452 5443 5435 5426 5417 5407 5398 5388
5596 5595 5585 5580 5586 5594 5606 5612 5609 5607 5603 5605 5606 5602 5598 5595 5596 5591 5587 5583 5578 5569 5561 5551 5541 5531 5521 5512 5504 5495 5486 5476 5468 5459 5451 5443 5435 5426 5417 5407 5396 5387 5379 5370
5589 5592 5586 5582 5586 5588 5609 5613 5614 5607 5592 5599 5598 5594 5591 5591 5584 5583 5580 5570 5562 5554 5545 5535 5525 5516 5507 5497 5489 5480 5470 5460 5451 5443 5434 5426 5417 5408 5397 5387 5377 5368 5359 5353
5584 5583 5581 5582 5585 5593 5606 5607 5607 5595 5597 5592 5589 5587 5583 5581 5577 5574 5565 5556 5548 5539 5530 5521 5512 5502 5493 5483 5474 5464 5454 5444 5435 5427 5418 5409 5399 5389 5379 5369 5358 5350 5344 5339
5582 5576 5575 5575 5579 5588 5601 5596 5595 5593 5585 5583 5580 5579 5576 5573 5569 5559 5551 5542 5533 5524 5516 5507 5498 5487 5477 5468 5458 5448 5438 5429 5420 5411 5402 5392 5382 5371 5363 5352 5343 5335 5327 5322
5577 5584 5582 5584 5586 5589 5592 5592 5587 5583 5577 5575 5572 5571 5568 5564 5556 5548 5538 5528 5519 5511 5502 5493 5483 5471 5461 5450 5441 5431 5423 5414 5405 5395 5385 5376 5366 5355 5345 5336 5329 5323 5314 5307
5571 5573 5572 5574 5579 5581 5577 5577 5576 5575 5572 5569 5566 5562 5557 5553 5546 5536 5524 5514 5505 5496 5487 5477 5465 5454 5444 5434 5425 5417 5409 5400 5390 5380 5370 5360 5351 5343 5334 5324 5316 5308 5300 5294
5574 5565 5568 5570 5570 5568 5570 5569 5567 5565 5562 5558 5554 5550 5545 5539 5531 5520 5508 5499 5489 5480 5469 5458 5448 5438 5428 5419 5411 5403 5394 5385 5374 5364 5355 5346 5338 5329 5323 5316 5306 5298 5291 5280
5558 5561 5565 5567 5565 5561 5560 5561 5559 5555 5552 5547 5540 5532 5526 5521 5513 5503 5492 5482 5473 5463 5452 5442 5432 5424 5415 5405 5396 5388 5380 5369 5358 5350 5342 5333 5325 5318 5312 5306 5303 5295 5285 5278